Weather reports worldwide

Advertisment
Lulea/Kallax, Sweden (2186): temperature & dewpoint: 15.05.2019 05:00:00 - 21.05.2019 05:00:00 (CEST)Lulea/Kallax, Sweden (2186): wind speed & gusts: 15.05.2019 05:00:00 - 21.05.2019 05:00:00 (CEST)Lulea/Kallax, Sweden (2186): wind direction: 15.05.2019 05:00:00 - 21.05.2019 05:00:00 (CEST)Lulea/Kallax, Sweden (2186): reduced air pressure: 15.05.2019 05:00:00 - 21.05.2019 05:00:00 (CEST)Lulea/Kallax, Sweden (2186): visibility: 15.05.2019 05:00:00 - 21.05.2019 05:00:00 (CEST)Lulea/Kallax, Sweden (2186): precipitation: 15.05.2019 05:00:00 - 21.05.2019 05:00:00 (CEST)
Date & Time tt [°C] td [°C] ff [km/h] ff [kn] fx [km/h] fx [kn] dd ppp [hPa] vv [km] rr [mm]
21.05.2019 05:00:00 12,2 11,1 2 1 7 4 - 1015,8 10 0,0
21.05.2019 04:00:00 12,0 11,1 4 2 11 6 N 1015,8 10 0,0
21.05.2019 03:00:00 11,5 10,7 2 1 11 6 - 1016,0 10 0,0
21.05.2019 02:00:00 11,6 10,7 5 3 11 6 NNE 1015,8 10 0,0
21.05.2019 01:00:00 11,7 10,8 4 2 11 6 N 1015,6 10 0,0
21.05.2019 00:00:00 11,6 10,7 0 0 7 4 N 1015,6 10 0,0
20.05.2019 23:00:00 12,1 10,8 8 4 14 8 NE 1015,7 10 0,0
20.05.2019 22:00:00 12,5 11,2 5 3 14 8 ENE 1015,7 10 0,0
20.05.2019 21:00:00 12,5 10,7 4 2 14 8 - 1015,5 10 0,0
20.05.2019 20:00:00 12,4 10,1 5 3 14 8 E 1015,4 10 0,0
20.05.2019 19:00:00 13,9 9,7 5 3 18 10 E 1015,2 10 0,0
20.05.2019 18:00:00 15,8 10,8 11 6 18 10 E 1015,3 10 0,0
20.05.2019 17:00:00 15,6 10,6 8 4 14 8 ESE 1015,0 10 0,0
20.05.2019 16:00:00 14,5 9,1 8 4 11 6 E 1015,5 10 0,0
20.05.2019 15:00:00 14,6 9,0 8 4 11 6 SSE 1015,9 10 0,0
20.05.2019 14:00:00 15,1 9,0 11 6 18 10 SSE 1015,8 10 0,0
20.05.2019 13:00:00 15,0 9,4 5 3 11 6 SE 1015,7 10 0,0
20.05.2019 12:00:00 15,9 9,9 8 4 11 6 SE 1015,8 10 0,0
20.05.2019 11:00:00 14,5 9,9 4 2 11 6 - 1016,0 10 0,0
20.05.2019 10:00:00 12,4 8,7 2 1 11 6 - 1015,8 10 0,1
20.05.2019 09:00:00 12,4 9,2 0 0 7 4 N 1015,8 10 0,2
20.05.2019 08:00:00 12,3 8,4 0 0 4 2 N 1015,6 10 0,0
20.05.2019 07:00:00 11,9 8,0 0 0 7 4 N 1015,6 10 0,0
20.05.2019 06:00:00 10,7 8,1 0 0 7 4 N 1015,4 10 0,0
20.05.2019 05:00:00 10,3 7,9 0 0 0 0 N 1015,4 10 0,3
20.05.2019 04:00:00 10,5 6,3 0 0 7 4 N 1015,6 10 0,0
20.05.2019 03:00:00 10,2 5,8 0 0 7 4 N 1015,6 10 0,0
20.05.2019 02:00:00 10,1 5,7 4 2 7 4 S 1015,9 10 0,0
20.05.2019 01:00:00 9,3 5,1 0 0 4 2 N 1015,8 10 0,0
20.05.2019 00:00:00 10,2 4,3 0 0 4 2 N 1015,9 10 0,0
19.05.2019 23:00:00 11,1 4,1 0 0 0 0 N 1015,8 10 0,0
19.05.2019 22:00:00 13,3 4,7 0 0 0 0 N 1015,6 10 0,0
19.05.2019 21:00:00 14,7 4,1 2 1 4 2 ENE 1015,4 10 0,0
19.05.2019 20:00:00 15,8 2,9 0 0 7 4 N 1015,8 10 0,0
19.05.2019 19:00:00 16,4 2,0 5 3 14 8 S 1016,0 10 0,0
19.05.2019 18:00:00 16,3 4,3 2 1 11 6 - 1016,7 10 0,0
19.05.2019 17:00:00 16,9 3,6 5 3 11 6 SSE 1017,0 10 0,0
19.05.2019 16:00:00 16,4 4,4 9 5 14 8 SSE 1017,2 10 0,0
19.05.2019 15:00:00 16,6 3,3 11 6 18 10 SSE 1017,4 10 0,0
19.05.2019 14:00:00 16,5 3,2 13 7 18 10 SSE 1017,6 10 0,0
19.05.2019 13:00:00 15,5 4,5 15 8 22 12 SSE 1017,7 10 0,0
19.05.2019 12:00:00 15,9 4,0 18 10 22 12 SSE 1017,9 10 0,0
19.05.2019 11:00:00 15,8 5,4 13 7 14 8 SSE 1017,8 10 0,0
19.05.2019 10:00:00 15,6 6,9 4 2 11 6 - 1017,7 10 0,0
19.05.2019 09:00:00 14,3 6,1 4 2 11 6 ESE 1017,6 10 0,0
19.05.2019 08:00:00 12,8 6,2 2 1 11 6 - 1017,8 10 0,0
19.05.2019 07:00:00 11,0 5,3 0 0 4 2 N 1017,5 10 0,0
19.05.2019 06:00:00 9,1 4,9 0 0 4 2 N 1017,7 10 0,0
19.05.2019 05:00:00 6,9 4,6 0 0 7 4 N 1017,7 10 0,0
19.05.2019 04:00:00 5,0 3,5 0 0 7 4 N 1017,9 10 0,0
19.05.2019 03:00:00 5,9 3,9 2 1 7 4 E 1017,9 10 0,0
19.05.2019 02:00:00 5,8 3,8 4 2 7 4 - 1017,9 10 0,0
19.05.2019 01:00:00 6,3 3,8 5 3 7 4 SE 1017,9 10 0,0
19.05.2019 00:00:00 7,0 3,8 2 1 4 2 SE 1017,8 10 0,0
18.05.2019 23:00:00 8,5 3,5 0 0 4 2 N 1017,9 10 0,0
18.05.2019 22:00:00 9,3 3,7 5 3 14 8 SE 1018,0 10 0,0
18.05.2019 21:00:00 10,2 3,9 9 5 14 8 SSE 1018,2 10 0,0
18.05.2019 20:00:00 10,8 4,5 9 5 14 8 SSE 1018,6 10 0,0
18.05.2019 19:00:00 12,5 4,2 9 5 14 8 SSE 1018,9 10 0,0
18.05.2019 18:00:00 12,7 4,6 15 8 22 12 S 1019,2 10 0,0
18.05.2019 17:00:00 13,2 4,4 13 7 29 16 S 1019,7 10 0,0
18.05.2019 16:00:00 14,1 4,1 18 10 29 16 S 1020,3 10 0,0
18.05.2019 15:00:00 13,8 4,4 18 10 29 16 SSW 1020,9 10 0,0
18.05.2019 14:00:00 13,6 3,9 21 11 29 16 S 1021,3 10 0,0
18.05.2019 13:00:00 15,1 3,3 18 10 29 16 S 1021,5 10 0,0
18.05.2019 12:00:00 14,8 3,3 18 10 32 18 S 1022,2 10 0,0
18.05.2019 11:00:00 15,0 5,0 18 10 - - S - 10 -
18.05.2019 10:00:00 14,2 5,5 16 9 25 14 S 1022,8 10 0,0
18.05.2019 09:00:00 14,8 5,8 9 5 18 10 SE 1023,0 10 0,0
18.05.2019 08:00:00 15,3 6,3 2 1 7 4 - 1023,3 10 0,0
18.05.2019 07:00:00 12,9 5,8 4 2 7 4 - 1023,6 10 0,0
18.05.2019 06:00:00 10,5 5,5 4 2 4 2 SE 1023,8 10 0,0
18.05.2019 05:00:00 6,9 4,9 2 1 4 2 - 1024,0 10 0,0
18.05.2019 04:00:00 5,9 3,9 0 0 4 2 N 1024,1 10 0,0
18.05.2019 03:00:00 4,9 2,8 0 0 4 2 N 1024,3 10 0,0
18.05.2019 02:00:00 5,6 3,1 0 0 7 4 N 1024,6 10 0,0
18.05.2019 01:00:00 5,8 2,8 0 0 7 4 N 1024,7 10 0,0
18.05.2019 00:00:00 8,4 4,0 0 0 7 4 N 1024,8 10 0,0
17.05.2019 23:00:00 8,4 3,4 2 1 7 4 SE 1024,9 10 0,0
17.05.2019 22:00:00 10,9 3,4 2 1 7 4 - 1025,1 10 0,0
17.05.2019 21:00:00 11,7 3,2 5 3 7 4 SSW 1025,3 10 0,0
17.05.2019 20:00:00 12,6 3,3 8 4 14 8 S 1025,3 10 0,0
17.05.2019 19:00:00 13,5 3,3 9 5 14 8 S 1025,5 10 0,0
17.05.2019 18:00:00 14,1 3,0 13 7 22 12 SSW 1026,0 10 0,0
17.05.2019 17:00:00 13,8 3,3 15 8 22 12 SSW 1026,3 10 0,0
17.05.2019 16:00:00 13,4 2,3 18 10 25 14 S 1026,7 10 0,0
17.05.2019 15:00:00 13,8 1,8 16 9 22 12 S 1027,1 10 0,0
17.05.2019 14:00:00 14,4 2,6 15 8 29 16 SSW 1027,4 10 0,0
17.05.2019 13:00:00 15,2 3,0 15 8 22 12 S 1027,7 10 0,0
17.05.2019 12:00:00 15,4 3,2 15 8 25 14 SSE 1028,0 10 0,0
17.05.2019 11:00:00 14,9 3,1 13 7 18 10 SE 1028,2 10 0,0
17.05.2019 10:00:00 13,9 2,5 2 1 14 8 - 1028,5 10 0,0
17.05.2019 09:00:00 13,0 1,9 9 5 14 8 N 1028,5 10 0,0
17.05.2019 08:00:00 11,9 2,1 8 4 18 10 NNE 1028,5 10 0,0
17.05.2019 07:00:00 10,6 3,6 11 6 18 10 N 1028,8 10 0,0
17.05.2019 06:00:00 9,0 3,6 9 5 14 8 N 1028,7 10 0,0
17.05.2019 05:00:00 7,6 3,3 9 5 14 8 NNW 1028,5 10 0,0
17.05.2019 04:00:00 6,9 3,0 9 5 14 8 NNW 1028,2 10 0,0
17.05.2019 03:00:00 5,1 2,3 4 2 14 8 NW 1027,8 10 0,0
17.05.2019 02:00:00 6,1 2,4 8 4 11 6 N 1027,6 10 0,0
17.05.2019 01:00:00 4,4 1,4 2 1 7 4 NNW 1027,4 10 0,0
17.05.2019 00:00:00 5,4 1,9 0 0 0 0 N 1027,3 10 0,0
16.05.2019 23:00:00 6,3 2,0 0 0 7 4 N 1027,3 10 0,0
16.05.2019 22:00:00 8,2 1,8 0 0 7 4 N 1027,2 10 0,0
16.05.2019 21:00:00 9,6 1,7 8 4 14 8 SW 1027,1 10 0,0
16.05.2019 20:00:00 10,6 1,7 8 4 22 12 SSW 1027,1 10 0,0
16.05.2019 19:00:00 11,2 1,2 5 3 18 10 S 1027,2 10 0,0
16.05.2019 18:00:00 10,0 1,4 16 9 22 12 S 1027,5 10 0,0
16.05.2019 17:00:00 11,1 0,2 11 6 25 14 S 1027,8 10 0,0
16.05.2019 16:00:00 11,2 -1,6 16 9 25 14 S 1028,1 10 0,0
16.05.2019 15:00:00 10,5 -1,6 16 9 25 14 S 1028,2 10 0,0
16.05.2019 14:00:00 12,1 1,1 18 10 25 14 SSE 1028,1 10 0,0
16.05.2019 13:00:00 12,1 0,5 16 9 22 12 SSE 1028,0 10 0,0
16.05.2019 12:00:00 13,5 -0,5 16 9 29 16 SE 1028,3 10 0,0
16.05.2019 11:00:00 12,4 -1,5 11 6 22 12 NNW 1028,6 10 0,0
16.05.2019 10:00:00 11,2 -1,2 11 6 22 12 NW 1028,8 10 0,0
16.05.2019 09:00:00 10,1 -0,7 8 4 18 10 NNE 1028,8 10 0,0
16.05.2019 08:00:00 8,3 -0,7 9 5 18 10 N 1028,6 10 0,0
16.05.2019 07:00:00 6,5 -0,5 11 6 18 10 NNW 1028,9 10 0,0
16.05.2019 06:00:00 5,1 0,3 11 6 14 8 NNW 1028,7 10 0,0
16.05.2019 05:00:00 3,8 0,1 11 6 18 10 NW 1028,5 10 0,0
16.05.2019 04:00:00 3,3 -0,3 8 4 14 8 N 1028,3 10 0,0
16.05.2019 03:00:00 2,8 -0,1 4 2 11 6 NNW 1028,3 10 0,0
16.05.2019 02:00:00 1,9 0,6 0 0 0 0 N 1028,2 10 0,0
16.05.2019 01:00:00 2,3 1,4 0 0 4 2 N 1028,1 10 0,0
16.05.2019 00:00:00 2,5 1,6 0 0 4 2 N 1028,3 10 0,0
15.05.2019 23:00:00 3,5 2,0 4 2 7 4 - 1028,2 10 0,0
15.05.2019 22:00:00 4,3 2,2 5 3 14 8 S 1028,2 10 0,0
15.05.2019 21:00:00 5,2 1,9 11 6 18 10 S 1028,3 10 0,0
15.05.2019 20:00:00 6,8 0,5 13 7 22 12 S 1028,1 10 0,0
15.05.2019 19:00:00 6,7 -1,5 13 7 22 12 S 1028,3 10 0,0
15.05.2019 18:00:00 7,0 -0,9 15 8 29 16 S 1028,7 10 0,0
15.05.2019 17:00:00 8,8 -1,1 16 9 25 14 SSW 1028,6 10 0,0
15.05.2019 16:00:00 10,0 -3,0 18 10 25 14 SSW 1029,0 10 0,0
15.05.2019 15:00:00 9,8 -2,5 16 9 25 14 SSE 1029,1 10 0,0
15.05.2019 14:00:00 9,5 -1,6 18 10 25 14 S 1029,2 10 0,0
15.05.2019 13:00:00 10,8 -1,3 16 9 22 12 SSE 1029,2 10 0,0
15.05.2019 12:00:00 10,5 -2,2 11 6 18 10 SSE 1029,3 10 0,0
15.05.2019 11:00:00 10,2 -2,8 9 5 14 8 SSE 1029,2 10 0,0
15.05.2019 10:00:00 9,3 -3,3 8 4 18 10 N 1029,3 10 0,0
15.05.2019 09:00:00 8,5 -2,2 8 4 18 10 NNW 1029,1 10 0,0
15.05.2019 08:00:00 7,2 -1,5 9 5 14 8 NW 1029,0 10 0,0
15.05.2019 07:00:00 5,8 -1,6 8 4 22 12 NNW 1028,6 10 0,0
15.05.2019 06:00:00 4,8 -2,1 16 9 22 12 NW 1028,3 10 0,0
15.05.2019 05:00:00 3,8 -2,2 11 6 18 10 NNW 1027,9 10 0,0

tt = temperature
td = dewpoint
ff = wind speed
fx = gusts
dd = wind direction
ppp = reduced air pressure
vv = visibility
rr = precipitation

Next stations